This is the latest recevied weather packets stored in our database for station/object K5IDL. If no packets are shown the sender has not sent any weather packets the latest 10 day(s).
| Time | Temp. | Humidity | Pressure | Rain* | Wind** | Luminosity | Snow |
|---|---|---|---|---|---|---|---|
| 1777238634 | 30° C | 66% | 1007.2 hPa | 0 mm | - | 117 W/m² | - |
| 1777238331 | 30° C | 66% | 1007.3 hPa | 0 mm | - | 87 W/m² | - |
| 1777238027 | 30° C | 66% | 1007.4 hPa | 0 mm | - | 94 W/m² | - |
| 1777237724 | 30° C | 66% | 1007.6 hPa | 0 mm | - | 107 W/m² | - |
| 1777237421 | 30° C | 67% | 1007.6 hPa | 0 mm | - | 129 W/m² | - |
| 1777237118 | 30° C | 67% | 1007.7 hPa | 0 mm | - | 160 W/m² | - |
| 1777236816 | 30° C | 67% | 1007.6 hPa | 0 mm | - | 165 W/m² | - |
| 1777236515 | 30° C | 67% | 1007.7 hPa | 0 mm | - | 154 W/m² | - |
| 1777236212 | 30° C | 67% | 1007.7 hPa | 0 mm | - | 81 W/m² | - |
| 1777235907 | 29.44° C | 68% | 1007.8 hPa | 0 mm | - | 98 W/m² | - |
| 1777235604 | 29.44° C | 68% | 1008 hPa | 0 mm | - | 128 W/m² | - |
| 1777235300 | 30° C | 67% | 1008 hPa | 0 mm | - | 140 W/m² | - |
| 1777234997 | 30° C | 67% | 1008 hPa | 0 mm | - | 191 W/m² | - |
| 1777234688 | 30° C | 67% | 1008 hPa | 0 mm | - | 195 W/m² | - |
| 1777234384 | 29.44° C | 68% | 1008 hPa | 0 mm | - | 199 W/m² | - |
| 1777234079 | 29.44° C | 68% | 1008 hPa | 0 mm | - | 172 W/m² | - |
| 1777233775 | 29.44° C | 69% | 1008 hPa | 0 mm | - | 163 W/m² | - |
| 1777233472 | 30° C | 67% | 1008.3 hPa | 0 mm | - | 185 W/m² | - |
| 1777233171 | 30° C | 66% | 1008.2 hPa | 0 mm | - | 204 W/m² | - |
| 1777232866 | 30° C | 66% | 1008.2 hPa | 0 mm | - | 254 W/m² | - |
| 1777232565 | 29.44° C | 68% | 1008.3 hPa | 0 mm | - | 275 W/m² | - |
| 1777232264 | 29.44° C | 69% | 1008.2 hPa | 0 mm | - | 271 W/m² | - |
| 1777231958 | 29.44° C | 68% | 1008.4 hPa | 0 mm | - | 262 W/m² | - |
| 1777231656 | 29.44° C | 68% | 1008.3 hPa | 0 mm | - | 221 W/m² | - |
| 1777231353 | 28.89° C | 68% | 1008.3 hPa | 0 mm | - | 349 W/m² | - |
* Rain latest hour (hover to see other rain measurements)
** Current wind speed in m/s (hover to see current wind gust speed)